sat.trackr.live / text

‹ back to catalog

RAVEN

NORAD 69016 · 2026-100AN

PAYLOAD ACTIVE UNKNOWN

§ Identity

Operator
Country
GER
Launch date
2026-05-03
Launch site
AFWTR
Launch vehicle
Mass (kg)
RCS (m²)

External: N2YO · Heavens-Above · Gunter

§ Orbital elements

Epoch: 2026-09-19T10:24:24.431904Z

Period
94.63 min
Inclination
97.3898°
Eccentricity
0.0009660
Mean motion
15.21745836 rev/d
Perigee alt
493.9 km
Apogee alt
507.2 km
Semi-major
6,878.7 km
B*
7.8831e-5
RAAN
158.6961°
Arg perigee
81.4393°
Mean anomaly
278.7938°
Rev number
2,114

§ Raw data

RAVEN1 69016U 26100AN  26262.43361611  .00001719  00000+0  78831-4 0  99922 69016  97.3898 158.6961 0009660  81.4393 278.7938 15.21745836 21147

JSON: /api/v1/satellites/69016 · /tle

For live sub-satellite position, see the globe view (requires WebGL).

§ Visibility from observer

Set your observer location to see the next 7 days of passes ≥ 10°. The values pass through the URL so the page stays shareable.

No JS? Fill the form by hand. The geolocation button needs JavaScript.